| time (UTC) | temp F | wind direction | speed MPH | gust MPH | rain 1hr in | rain 24hr in | rain mn in | humidity % | barometer mb |
| 20260507014513 | 48 | 46 | 0.0 | 0.0 | 0.00 | 0.55 | 0.23 | 73 | 1014.0 |
| 20260507013013 | 49 | 46 | 0.0 | 0.0 | 0.00 | 0.55 | 0.23 | 74 | 1013.7 |
| 20260507011510 | 49 | 46 | 0.0 | 0.0 | 0.00 | 0.55 | 0.23 | 73 | 1013.7 |
| 20260507010025 | 49 | 46 | 0.0 | 0.0 | 0.00 | 0.64 | 0.23 | 71 | 1013.6 |
| 20260507004508 | 49 | 45 | 0.0 | 0.0 | 0.00 | 0.64 | 0.23 | 70 | 1013.6 |
| 20260507003007 | 49 | 46 | 0.0 | 0.0 | 0.00 | 0.64 | 0.23 | 68 | 1013.6 |
| 20260507001508 | 49 | 46 | 0.0 | 0.0 | 0.00 | 0.64 | 0.23 | 67 | 1013.6 |
| 20260507000007 | 50 | 46 | 0.0 | 0.0 | 0.00 | 0.67 | 0.23 | 67 | 1013.5 |
| 20260506234509 | 50 | 46 | 0.0 | 0.0 | 0.00 | 0.67 | 0.23 | 65 | 1013.6 |
| 20260506233005 | 50 | 40 | 0.0 | 0.0 | 0.00 | 0.67 | 0.23 | 64 | 1013.5 |
| 20260506231504 | 50 | 43 | 0.0 | 0.0 | 0.00 | 0.67 | 0.23 | 65 | 1013.4 |
| 20260506230003 | 51 | 25 | 0.0 | 0.0 | 0.00 | 0.82 | 0.23 | 65 | 1013.4 |
| 20260506224511 | 51 | 310 | 0.0 | 2.0 | 0.00 | 0.82 | 0.23 | 66 | 1013.3 |
| 20260506223002 | 51 | 49 | 0.0 | 0.0 | 0.00 | 0.82 | 0.23 | 64 | 1013.4 |
| 20260506221600 | 51 | 65 | 0.0 | 4.0 | 0.00 | 0.82 | 0.23 | 64 | 1013.2 |
| 20260506220109 | 51 | 38 | 0.0 | 4.0 | 0.00 | 0.96 | 0.23 | 64 | 1013.0 |
| 20260506214558 | 51 | 17 | 0.0 | 2.0 | 0.00 | 0.96 | 0.23 | 65 | 1012.9 |
| 20260506213055 | 52 | 72 | 1.0 | 5.0 | 0.00 | 0.96 | 0.23 | 64 | 1012.5 |
| 20260506211557 | 52 | 39 | 1.0 | 5.0 | 0.00 | 0.96 | 0.23 | 62 | 1012.4 |
| 20260506210055 | 52 | 18 | 0.0 | 5.0 | 0.00 | 1.12 | 0.23 | 62 | 1012.4 |
| 20260506204554 | 53 | 42 | 0.0 | 4.0 | 0.00 | 1.12 | 0.23 | 60 | 1012.4 |
| 20260506203059 | 54 | 109 | 0.0 | 6.0 | 0.00 | 1.12 | 0.23 | 58 | 1012.3 |
| 20260506201554 | 54 | 40 | 0.0 | 3.0 | 0.00 | 1.12 | 0.23 | 53 | 1012.1 |
| 20260506200052 | 54 | 306 | 0.0 | 3.0 | 0.00 | 1.15 | 0.23 | 56 | 1012.3 |
| 20260506194554 | 55 | 249 | 0.0 | 5.0 | 0.00 | 1.15 | 0.23 | 53 | 1012.4 |
| 20260506193053 | 55 | 298 | 2.0 | 10.0 | 0.00 | 1.15 | 0.23 | 53 | 1012.4 |
| 20260506191552 | 55 | 255 | 0.0 | 6.0 | 0.00 | 1.15 | 0.23 | 59 | 1012.4 |
| 20260506190049 | 55 | 230 | 0.0 | 8.0 | 0.00 | 1.15 | 0.23 | 62 | 1012.4 |
| 20260506184547 | 54 | 85 | 0.0 | 15.0 | 0.00 | 1.15 | 0.23 | 65 | 1012.5 |
| 20260506183046 | 55 | 32 | 1.0 | 6.0 | 0.00 | 1.15 | 0.23 | 66 | 1012.4 |
| 20260506181559 | 54 | 264 | 0.0 | 6.0 | 0.00 | 1.15 | 0.23 | 70 | 1012.4 |
| 20260506180048 | 53 | 63 | 1.0 | 9.0 | 0.00 | 1.15 | 0.23 | 68 | 1012.4 |
| 20260506174545 | 53 | 31 | 2.0 | 10.0 | 0.00 | 1.15 | 0.23 | 68 | 1012.5 |
| 20260506173107 | 53 | 34 | 0.0 | 7.0 | 0.00 | 1.15 | 0.23 | 68 | 1012.2 |
| 20260506171552 | 53 | 75 | 0.0 | 6.0 | 0.00 | 1.15 | 0.23 | 67 | 1012.3 |
| 20260506170045 | 53 | 343 | 0.0 | 7.0 | 0.00 | 1.17 | 0.23 | 72 | 1012.5 |
| 20260506164540 | 54 | 321 | 1.0 | 10.0 | 0.00 | 1.17 | 0.23 | 72 | 1012.2 |
| 20260506163039 | 55 | 321 | 0.0 | 9.0 | 0.00 | 1.17 | 0.23 | 73 | 1011.9 |
| 20260506161537 | 54 | 271 | 1.0 | 6.0 | 0.00 | 1.17 | 0.23 | 72 | 1011.6 |
| 20260506160040 | 54 | 327 | 0.0 | 5.0 | 0.00 | 1.17 | 0.23 | 72 | 1011.6 |
| 20260506154535 | 53 | 221 | 1.0 | 7.0 | 0.00 | 1.17 | 0.23 | 75 | 1011.7 |
| 20260506153031 | 53 | 248 | 1.0 | 7.0 | 0.00 | 1.17 | 0.23 | 80 | 1011.3 |
| 20260506151528 | 52 | 300 | 0.0 | 7.0 | 0.00 | 1.17 | 0.23 | 81 | 1010.9 |
| 20260506150025 | 51 | 250 | 0.0 | 6.0 | 0.00 | 1.17 | 0.23 | 86 | 1010.7 |
| 20260506144521 | 50 | 267 | 0.0 | 5.0 | 0.00 | 1.17 | 0.23 | 85 | 1010.7 |
| 20260506143020 | 50 | 236 | 0.0 | 6.0 | 0.00 | 1.17 | 0.23 | 87 | 1010.7 |
| 20260506141517 | 49 | 5 | 0.0 | 5.0 | 0.00 | 1.17 | 0.23 | 87 | 1010.4 |
| 20260506140015 | 49 | 255 | 0.0 | 7.0 | 0.00 | 1.17 | 0.23 | 89 | 1010.3 |
| 20260506134511 | 48 | 261 | 0.0 | 2.0 | 0.00 | 1.17 | 0.23 | 91 | 1010.4 |
| 20260506133011 | 47 | 249 | 0.0 | 2.0 | 0.00 | 1.17 | 0.23 | 92 | 1010.4 |
| 20260506131520 | 48 | 281 | 0.0 | 2.0 | 0.00 | 1.17 | 0.23 | 94 | 1010.3 |
| 20260506130008 | 47 | 301 | 0.0 | 0.0 | 0.00 | 1.17 | 0.23 | 94 | 1009.7 |
| 20260506124505 | 47 | 314 | 0.0 | 0.0 | 0.00 | 1.17 | 0.23 | 94 | 1009.5 |
| 20260506123004 | 47 | 314 | 0.0 | 0.0 | 0.00 | 1.17 | 0.23 | 95 | 1009.5 |
| 20260506121505 | 46 | 314 | 0.0 | 0.0 | 0.00 | 1.17 | 0.23 | 94 | 1009.3 |
| 20260506120007 | 46 | 314 | 0.0 | 0.0 | 0.00 | 1.17 | 0.23 | 94 | 1009.2 |
| 20260506114501 | 46 | 314 | 0.0 | 0.0 | 0.00 | 1.17 | 0.23 | 95 | 1009.3 |
| 20260506113059 | 46 | 314 | 0.0 | 0.0 | 0.00 | 1.17 | 0.23 | 94 | 1008.9 |
| 20260506111557 | 46 | 314 | 0.0 | 0.0 | 0.00 | 1.17 | 0.23 | 94 | 1008.6 |
| 20260506110104 | 45 | 313 | 0.0 | 0.0 | 0.00 | 1.17 | 0.23 | 94 | 1008.3 |
| 20260506104557 | 45 | 313 | 0.0 | 0.0 | 0.00 | 1.17 | 0.23 | 94 | 1008.0 |
| 20260506103055 | 46 | 311 | 0.0 | 0.0 | 0.01 | 1.17 | 0.23 | 94 | 1008.4 |
| 20260506101555 | 46 | 310 | 0.0 | 0.0 | 0.01 | 1.17 | 0.23 | 94 | 1008.1 |
| 20260506100054 | 45 | 311 | 0.0 | 0.0 | 0.02 | 1.17 | 0.23 | 94 | 1007.4 |
| 20260506094619 | 45 | 311 | 0.0 | 0.0 | 0.02 | 1.17 | 0.23 | 94 | 1007.5 |
| 20260506093052 | 45 | 300 | 0.0 | 3.0 | 0.02 | 1.15 | 0.22 | 94 | 1008.2 |
| 20260506091550 | 46 | 35 | 0.0 | 1.0 | 0.03 | 1.15 | 0.22 | 94 | 1008.4 |
| 20260506090049 | 46 | 285 | 0.0 | 3.0 | 0.04 | 1.14 | 0.21 | 94 | 1008.0 |
| 20260506084548 | 46 | 13 | 0.0 | 3.0 | 0.07 | 1.14 | 0.21 | 94 | 1007.8 |
| 20260506083048 | 47 | 348 | 0.0 | 0.0 | 0.07 | 1.13 | 0.20 | 94 | 1007.6 |
| 20260506081546 | 47 | 350 | 0.0 | 0.0 | 0.07 | 1.12 | 0.19 | 94 | 1007.9 |
| 20260506073045 | 47 | 26 | 0.0 | 0.0 | 0.04 | 1.07 | 0.13 | 94 | 1007.9 |
| 20260506071546 | 47 | 26 | 0.0 | 0.0 | 0.03 | 1.06 | 0.12 | 93 | 1007.6 |
| 20260506061539 | 47 | 29 | 0.0 | 0.0 | 0.04 | 1.05 | 0.09 | 93 | 1007.8 |
| 20260506044532 | 47 | 15 | 0.0 | 0.0 | 0.04 | 0.98 | 0.02 | 93 | 1008.2 |
| 20260506043030 | 47 | 14 | 0.0 | 0.0 | 0.05 | 0.98 | 0.02 | 93 | 1008.2 |
| 20260506041528 | 48 | 14 | 0.0 | 0.0 | 0.06 | 0.97 | 0.01 | 93 | 1008.4 |
| 20260506040026 | 48 | 43 | 0.0 | 4.0 | 0.08 | 0.96 | 0.96 | 93 | 1008.5 |
| 20260506034524 | 49 | 326 | 0.0 | 0.0 | 0.09 | 0.94 | 0.94 | 94 | 1008.7 |
| 20260506033023 | 49 | 12 | 0.0 | 0.0 | 0.12 | 0.93 | 0.93 | 93 | 1008.8 |
| 20260506031522 | 50 | 316 | 0.0 | 0.0 | 0.14 | 0.91 | 0.91 | 94 | 1008.8 |
| 20260506030030 | 50 | 316 | 0.0 | 0.0 | 0.14 | 0.88 | 0.88 | 94 | 1008.9 |
| 20260506024535 | 50 | 315 | 0.0 | 0.0 | 0.15 | 0.85 | 0.85 | 94 | 1008.9 |
| 20260506023019 | 50 | 315 | 0.0 | 0.0 | 0.14 | 0.81 | 0.81 | 94 | 1008.5 |
| 20260506021517 | 50 | 313 | 0.0 | 0.0 | 0.12 | 0.77 | 0.77 | 93 | 1008.3 |
| 20260506020015 | 50 | 311 | 0.0 | 0.0 | 0.09 | 0.73 | 0.73 | 94 | 1008.1 |